Wetbulb
57.67 53.74 48.64 44.84 36.73 33.49 28.82 33.29 35.98 36.05 34.92 37.45 37.72 36.53 34.86 34.98 33.57 29.43 42.25 44.88 46.13 46.95 49.13 49.84 58.71 60.43 59.46 61.26 59.34 59.52 59.67 61.01 60.29 60.46 61.45 61.93 62.54 62.57 62.28 62.27 62.40 64.20 65.17 65.46 66.02 66.15 66.01 65.48 65.63
53.67 53.39 45.87 38.84 31.19 26.29 28.62 34.05 37.00 38.12 38.13 37.71 37.28 35.47 34.54 33.42 38.95 39.92 40.06 44.70 45.98 46.68 48.15 49.72 57.69 58.41 58.40 58.54 58.40 58.86 58.68 58.24 58.50 58.72 59.52 60.27 60.79 60.93 61.02 61.06 61.39 61.91 63.46 64.18 64.76 64.68 65.18 64.85 64.84
52.46 47.57 41.69 34.71 29.06 26.44 29.50 35.28 36.52 38.06 38.68 36.41 34.70 36.31 35.07 34.51 38.39 38.43 41.64 44.04 44.75 44.50 46.48 51.06 56.64 56.58 57.10 57.63 57.22 56.81 56.44 56.53 56.52 57.17 57.36 57.65 58.12 58.81 59.75 59.96 60.15 60.86 61.89 62.46 63.46 63.58 63.65 63.41 63.83
47.83 43.55 38.47 32.26 28.75 30.68 34.50 36.90 37.22 37.16 36.37 37.61 34.50 32.08 35.05 38.48 38.25 40.06 41.92 42.10 41.72 42.36 44.07 49.55 55.12 55.59 55.87 55.94 55.22 55.20 55.10 55.10 55.08 55.40 55.82 56.17 56.36 56.42 57.07 57.91 59.39 59.72 60.71 61.67 61.99 62.38 62.22 62.19 62.59
43.75 38.61 31.65 29.31 27.99 30.73 34.76 38.33 38.27 36.78 35.00 34.29 35.14 30.86 32.79 38.00 39.76 39.37 38.99 40.12 39.03 39.96 41.77 45.07 53.64 53.50 54.16 54.23 53.97 53.73 53.60 53.45 53.47 53.53 53.75 54.13 54.27 54.70 55.08 55.64 56.45 57.90 58.53 59.99 60.65 61.09 61.22 60.76 60.91
40.03 36.47 29.48 26.47 27.58 31.54 33.47 37.18 37.97 34.89 34.41 35.03 33.64 31.63 31.63 37.38 37.43 37.15 38.07 37.16 37.78 38.53 40.48 42.68 49.06 51.96 52.20 52.37 52.15 51.98 51.96 51.69 51.47 51.83 51.90 51.96 52.04 52.56 53.08 53.62 54.52 55.47 56.50 57.61 58.28 59.32 59.69 59.65 59.38
38.43 33.28 27.73 27.15 29.81 31.61 34.13 37.21 34.35 33.85 34.19 33.11 35.16 30.60 31.90 34.60 36.84 36.97 36.40 36.19 36.90 37.85 38.84 39.68 42.75 48.38 49.77 49.46 49.54 49.51 50.00 49.76 49.24 48.78 49.37 49.14 48.88 49.75 50.10 50.72 52.08 53.66 54.60 55.22 55.73 56.58 57.55 58.40 57.36
38.81 34.45 28.53 27.78 29.08 31.00 34.82 34.93 35.66 35.00 32.31 35.86 35.78 29.70 28.65 33.20 37.44 36.84 36.29 35.55 35.59 36.33 37.27 37.89 39.62 44.33 45.37 44.03 47.39 47.19 47.68 47.69 46.68 45.85 46.11 46.35 46.00 46.68 47.16 47.75 49.50 51.80 52.27 53.22 53.95 54.72 55.16 56.23 55.75
40.22 33.08 28.47 30.85 30.90 32.57 35.06 34.09 34.22 33.73 33.12 31.43 33.05 32.68 33.63 35.57 36.32 34.80 33.23 33.40 33.96 36.84 36.02 37.21 37.72 40.17 43.68 42.97 43.44 44.78 44.85 44.76 43.70 42.18 42.73 42.52 41.29 41.38 42.05 45.41 47.71 49.20 49.70 50.68 51.86 52.73 53.05 53.65 53.61
38.13 32.85 32.91 35.04 34.53 33.91 35.10 34.07 33.36 31.38 29.78 29.44 30.27 32.79 34.16 33.96 33.21 31.88 30.55 30.12 31.82 33.25 35.29 36.60 37.13 37.79 41.27 44.08 41.38 40.35 40.61 39.78 38.99 38.02 37.69 38.80 38.92 39.44 41.47 42.15 45.17 45.81 46.72 47.87 49.43 50.26 50.83 50.02 50.36
36.28 33.02 34.01 34.23 35.56 36.71 35.11 32.69 33.04 31.07 28.90 30.08 29.75 30.71 32.03 31.65 31.42 31.26 30.34 29.96 30.44 32.06 35.16 36.71 37.22 37.95 37.89 39.22 39.85 38.57 38.82 37.43 37.31 36.54 36.93 36.84 36.37 36.13 38.01 38.62 40.07 40.30 42.35 42.46 43.50 43.44 44.42 46.24 47.51
34.73 35.10 34.95 36.85 37.19 36.62 34.78 34.38 31.28 30.33 31.40 34.37 32.18 31.89 31.29 30.76 30.37 30.06 30.00 30.34 30.95 32.86 34.45 36.08 36.40 37.49 37.50 37.83 37.76 37.46 36.81 36.39 35.94 35.72 36.28 35.59 34.26 33.58 34.33 36.62 38.71 39.80 40.05 40.14 41.21 41.61 42.37 43.96 46.03
33.55 33.25 35.27 35.68 35.99 34.53 35.98 31.89 31.21 28.84 28.97 32.05 32.17 32.58 30.58 29.94 30.05 29.71 31.07 30.89 30.98 32.79 34.28 35.19 35.92 36.18 37.59 36.95 36.73 37.35 36.80 35.56 35.35 35.13 35.39 35.58 33.92 32.66 32.76 34.07 36.65 38.99 39.46 38.82 39.45 41.10 42.40 42.90 44.50
32.58 34.29 34.08 35.14 34.59 35.02 33.22 30.31 31.17 30.34 29.47 30.37 31.43 30.02 29.54 30.09 30.01 29.32 29.66 29.65 31.00 33.54 33.74 34.98 35.96 35.72 36.35 35.83 35.50 35.85 36.73 35.35 34.64 34.41 34.50 35.04 34.39 32.91 32.11 32.07 33.62 35.00 36.07 38.37 38.90 39.19 40.67 42.02 43.35
33.51 32.10 33.05 33.38 33.39 32.48 34.37 30.02 29.55 31.22 30.10 29.79 29.72 28.65 29.35 29.95 30.22 29.56 30.30 30.02 31.32 32.84 33.93 34.91 36.36 34.94 34.48 34.52 34.85 35.09 36.06 35.37 33.89 34.16 34.37 34.41 34.26 32.95 31.96 31.48 31.59 32.72 35.04 38.14 38.52 38.23 39.00 40.57 42.11
30.93 29.45 26.58 30.81 32.86 32.46 30.82 26.22 30.86 30.77 28.97 28.38 28.13 26.71 28.57 29.41 29.98 29.23 30.25 30.16 30.77 32.36 33.20 34.20 36.18 34.21 33.89 33.49 33.98 34.35 34.50 33.79 33.11 33.37 33.62 34.12 34.03 33.27 31.63 31.07 30.99 32.19 33.76 36.44 36.36 36.86 37.12 38.99 39.55
27.10 23.37 24.15 27.23 33.15 31.60 29.47 25.97 29.67 30.78 29.29 28.09 26.53 26.49 27.88 28.07 28.44 28.67 29.76 29.54 31.09 31.97 32.47 32.44 32.63 32.47 33.07 32.92 33.52 32.94 33.18 32.50 32.10 31.59 32.07 32.67 33.03 32.92 31.31 30.76 30.97 31.77 31.97 33.86 35.00 35.81 36.55 37.50 37.24
24.39 24.10 25.21 24.38 29.31 29.12 27.50 26.97 28.16 30.64 29.48 29.55 26.68 26.24 26.82 27.65 28.57 29.37 29.88 29.46 30.81 31.01 31.68 31.59 31.80 31.08 31.78 31.72 31.38 31.27 31.31 30.92 30.89 30.30 30.80 31.40 31.41 31.22 30.54 30.08 30.41 31.00 30.70 31.46 33.27 34.53 36.24 36.61 36.95
27.85 26.11 24.47 24.54 28.91 28.30 26.77 27.19 28.65 30.16 29.67 29.82 26.90 27.48 27.57 27.56 29.79 29.86 29.98 28.52 29.45 29.87 30.67 30.08 29.78 29.66 29.87 29.00 28.02 28.65 27.51 28.76 28.74 29.14 29.81 29.69 29.74 29.93 29.07 28.41 29.15 29.96 29.50 29.98 31.79 32.95 33.88 34.76 37.26
27.83 25.85 24.26 26.45 28.42 28.05 25.68 27.04 29.90 29.46 30.72 31.76 31.67 29.35 29.01 27.73 28.10 29.28 28.31 27.48 28.51 28.73 29.62 29.00 29.20 28.75 29.09 28.85 28.38 28.09 27.32 28.00 27.61 27.96 28.01 28.60 28.51 28.52 28.17 26.68 27.24 28.07 28.78 29.37 30.22 31.88 32.31 34.00 36.27
26.59 25.72 24.59 25.58 26.40 26.38 25.96 24.74 24.84 28.00 30.18 31.92 32.96 33.28 31.39 29.57 28.77 28.18 27.76 26.84 26.67 27.36 27.71 28.61 28.64 28.16 27.48 28.03 27.55 26.77 26.59 26.11 24.90 25.24 25.35 26.32 27.21 27.04 26.73 25.47 26.04 26.24 27.91 28.05 28.91 31.02 31.06 30.86 33.59
25.71 28.68 27.47 26.54 24.64 20.42 24.45 17.71 24.25 25.34 27.40 29.12 31.69 29.88 30.28 29.38 30.35 29.46 28.20 26.38 26.68 27.50 27.38 27.93 28.34 27.66 27.15 26.28 24.62 23.36 22.87 21.83 22.76 22.86 24.45 24.96 25.76 25.30 25.87 24.93 25.07 25.06 26.44 26.84 28.49 30.70 30.95 31.32 30.64
27.44 29.26 27.84 26.31 23.42 21.46 20.70 18.23 23.47 24.52 26.71 28.43 30.33 30.78 30.53 30.17 30.12 28.46 28.32 28.67 28.15 27.58 25.93 26.18 26.37 25.99 25.21 24.60 23.70 21.93 21.63 22.71 22.33 21.79 22.92 23.15 23.77 24.39 24.56 23.86 23.80 24.06 25.08 26.03 27.25 28.68 30.10 31.27 31.36
30.22 27.73 26.62 23.68 22.01 10.85 19.71 20.23 21.15 24.37 27.76 27.82 28.39 31.06 30.53 29.49 29.59 29.08 28.58 28.53 27.99 26.28 25.48 25.18 25.04 24.38 24.46 23.41 22.70 21.00 20.07 20.59 21.20 21.30 20.66 20.72 21.30 21.83 22.39 22.42 22.67 23.53 23.92 24.78 26.43 28.15 29.62 30.04 31.42
27.20 24.18 10.13 10.93 6.88 12.92 19.50 18.40 24.08 27.52 28.97 30.21 31.03 28.77 29.19 29.65 28.09 26.85 26.79 27.71 26.80 25.46 25.05 24.91 24.22 23.37 23.26 22.83 22.14 21.46 21.07 20.81 20.10 19.85 18.90 18.18 18.12 18.39 18.99 20.11 21.18 22.32 23.26 24.68 26.19 28.09 29.00 29.25 30.41
24.99 23.97 16.72 9.29 8.81 14.21 21.42 16.22 26.10 29.56 29.77 29.90 31.02 30.01 28.05 27.54 28.20 27.61 27.75 28.05 26.60 26.35 25.06 24.52 24.14 22.80 22.69 22.30 21.73 21.03 20.73 20.22 19.52 18.40 16.68 16.26 16.42 16.54 19.10 18.98 20.98 22.25 23.38 24.62 26.06 28.21 28.54 28.70 29.59
25.25 20.50 24.78 11.65 3.89 10.33 20.26 23.43 28.48 29.09 27.71 28.95 28.56 27.49 25.90 26.96 27.15 26.96 27.88 27.52 26.36 25.53 24.75 24.00 23.27 22.68 22.15 22.15 21.16 19.09 17.93 17.57 16.24 16.07 15.74 15.14 15.54 17.67 17.74 18.88 20.27 21.92 23.28 24.74 25.46 27.03 26.76 28.72 29.20
25.24 26.34 19.14 14.17 9.42 5.88 15.28 18.49 25.19 26.92 29.08 27.09 27.10 26.03 25.69 26.64 26.34 26.39 27.45 26.63 26.17 25.33 24.47 23.78 23.84 22.67 21.83 20.64 19.23 17.95 17.17 16.46 15.69 15.40 13.85 14.12 14.97 15.97 16.96 18.60 19.91 21.26 22.74 24.27 25.89 26.14 26.85 27.94 28.68
21.44 19.00 19.90 21.09 18.80 12.36 9.04 20.31 27.11 29.83 29.80 30.15 28.94 27.14 26.25 26.36 26.15 26.05 27.15 26.30 25.37 24.40 23.45 22.96 22.22 21.56 21.13 20.14 18.29 17.09 16.39 15.49 15.05 14.01 13.24 13.76 14.88 15.53 16.96 18.44 19.46 20.48 21.84 23.62 25.36 25.74 26.70 27.03 27.41
24.21 23.44 22.23 15.45 14.21 14.72 14.41 18.62 28.45 29.76 29.74 29.41 29.71 27.94 26.01 26.82 26.47 26.26 26.24 24.82 23.68 23.40 22.46 21.76 21.49 20.74 19.64 18.00 17.50 16.52 15.60 14.22 12.89 12.14 12.46 13.39 13.31 15.06 16.66 17.59 18.57 19.72 21.08 22.60 25.58 24.76 26.07 26.18 26.35
MSLP
1012.14 1011.88 1012.04 1012.98 1016.15 1019.25 1021.12 1021.74 1021.90 1022.41 1022.90 1023.31 1023.27 1023.65 1024.77 1025.32 1025.71 1026.84 1026.58 1026.45 1026.16 1025.74 1025.28 1024.63 1023.52 1022.89 1022.49 1022.06 1021.60 1021.11 1020.77 1020.47 1019.78 1019.26 1018.57 1017.84 1017.28 1016.73 1016.28 1015.74 1015.24 1014.67 1013.95 1013.28 1012.81 1012.27 1011.88 1011.35 1010.90
1012.23 1012.08 1013.01 1015.57 1018.52 1020.85 1021.93 1021.71 1022.00 1022.45 1023.19 1023.77 1023.95 1024.48 1024.84 1026.03 1025.92 1026.42 1026.71 1026.87 1026.37 1026.11 1025.66 1024.87 1023.78 1023.18 1022.81 1022.23 1021.89 1021.58 1021.31 1020.97 1020.46 1019.84 1019.20 1018.53 1017.90 1017.31 1016.63 1016.08 1015.57 1014.99 1014.22 1013.54 1013.00 1012.50 1012.00 1011.47 1010.91
1012.23 1012.72 1015.23 1017.83 1020.39 1021.68 1021.74 1021.70 1022.03 1022.79 1023.33 1023.79 1024.56 1025.10 1025.70 1026.38 1026.32 1026.86 1027.37 1027.01 1026.59 1026.25 1025.84 1025.14 1024.29 1023.94 1023.36 1022.72 1022.46 1022.24 1021.90 1021.52 1021.05 1020.46 1019.87 1019.32 1018.66 1018.09 1017.44 1016.69 1015.96 1015.25 1014.56 1013.79 1013.21 1012.80 1012.24 1011.70 1011.09
1012.81 1014.51 1017.51 1018.93 1020.87 1021.16 1021.44 1021.69 1022.23 1023.03 1023.69 1024.01 1024.79 1025.97 1026.34 1026.70 1026.85 1027.25 1027.30 1026.96 1026.73 1026.48 1026.26 1025.76 1024.92 1024.36 1023.99 1023.42 1022.96 1022.61 1022.29 1022.02 1021.59 1021.09 1020.58 1020.08 1019.43 1018.77 1018.09 1017.43 1016.67 1015.92 1015.13 1014.26 1013.44 1012.96 1012.46 1011.90 1011.30
1014.12 1016.73 1019.18 1020.75 1021.29 1021.19 1021.25 1021.60 1022.28 1023.10 1023.85 1024.49 1024.87 1026.33 1026.76 1027.15 1027.36 1027.51 1027.36 1027.19 1027.19 1026.90 1026.43 1026.10 1025.36 1025.03 1024.47 1023.86 1023.54 1023.38 1023.00 1022.60 1022.22 1021.68 1021.07 1020.65 1020.11 1019.38 1018.71 1018.12 1017.34 1016.45 1015.52 1014.73 1013.92 1013.11 1012.56 1012.04 1011.37
1015.81 1017.92 1020.49 1021.63 1021.62 1021.66 1021.79 1021.97 1022.52 1023.50 1024.27 1024.87 1025.47 1026.38 1027.17 1027.37 1027.39 1027.61 1027.56 1027.66 1027.48 1027.19 1026.85 1026.41 1026.00 1025.41 1024.92 1024.58 1024.43 1023.97 1023.64 1023.43 1022.96 1022.33 1021.96 1021.41 1020.74 1020.03 1019.42 1018.81 1018.17 1016.93 1016.09 1015.16 1014.51 1013.59 1012.73 1012.18 1011.63
1016.44 1019.00 1021.16 1021.71 1021.95 1021.94 1022.17 1022.28 1022.88 1023.63 1024.21 1024.94 1025.40 1026.67 1027.35 1027.62 1027.68 1027.76 1027.81 1027.76 1027.59 1027.43 1027.20 1026.79 1026.25 1025.96 1025.75 1025.36 1024.99 1024.63 1024.31 1023.95 1023.39 1022.91 1022.40 1021.84 1021.28 1020.57 1019.97 1019.26 1018.41 1017.43 1016.56 1015.73 1014.86 1013.95 1013.17 1012.28 1011.67
1016.57 1019.09 1021.38 1021.78 1022.13 1022.22 1022.34 1022.94 1023.49 1024.17 1024.97 1025.03 1025.33 1026.46 1027.32 1027.45 1027.72 1027.80 1027.87 1027.91 1027.78 1027.52 1027.18 1026.98 1026.64 1026.42 1026.18 1026.00 1025.58 1025.23 1024.80 1024.25 1023.93 1023.46 1023.15 1022.66 1022.00 1021.31 1020.50 1019.71 1018.82 1017.97 1017.19 1016.29 1015.35 1014.31 1013.43 1012.53 1011.81
1016.47 1018.91 1021.17 1021.42 1022.00 1022.10 1022.59 1023.39 1024.26 1024.65 1025.04 1025.56 1025.82 1026.18 1026.65 1027.10 1027.66 1027.96 1028.24 1028.19 1027.98 1027.63 1027.58 1027.27 1027.14 1026.87 1026.49 1026.09 1025.90 1025.67 1025.31 1024.98 1024.34 1024.09 1023.52 1023.12 1022.53 1022.02 1021.28 1020.23 1019.27 1018.38 1017.64 1016.84 1015.98 1014.75 1013.71 1012.84 1012.17
1017.45 1019.16 1020.04 1020.04 1020.67 1021.41 1022.58 1023.33 1024.16 1024.87 1025.47 1026.03 1026.42 1026.84 1027.18 1027.53 1027.81 1028.26 1028.68 1028.81 1028.53 1028.32 1027.98 1027.93 1027.63 1027.29 1026.74 1026.33 1026.33 1026.12 1025.86 1025.50 1025.14 1024.59 1024.08 1023.55 1023.03 1022.27 1021.69 1020.86 1019.87 1018.98 1018.10 1017.27 1016.23 1015.24 1014.33 1013.20 1012.36
1018.54 1019.55 1019.86 1020.24 1020.59 1021.05 1022.63 1023.72 1024.28 1024.83 1025.70 1025.55 1026.11 1026.92 1027.48 1027.85 1028.18 1028.42 1028.69 1028.75 1028.77 1028.67 1028.59 1028.42 1027.91 1027.33 1027.11 1026.87 1026.64 1026.60 1026.31 1026.12 1025.63 1025.01 1024.50 1023.92 1023.33 1022.80 1021.89 1021.06 1020.23 1019.63 1018.73 1017.69 1016.63 1015.66 1014.91 1013.50 1012.81
1019.12 1020.12 1020.24 1020.64 1021.18 1021.73 1022.88 1023.79 1024.45 1024.81 1024.66 1024.74 1025.86 1026.68 1027.30 1027.86 1028.30 1028.55 1028.68 1028.76 1028.73 1028.80 1028.71 1028.43 1028.05 1027.62 1027.39 1027.26 1027.17 1027.05 1026.78 1026.41 1025.95 1025.47 1025.00 1024.47 1023.95 1023.21 1022.44 1021.71 1020.71 1019.99 1019.28 1018.20 1017.24 1016.20 1015.38 1013.91 1012.95
1019.65 1020.40 1020.96 1021.25 1021.56 1022.38 1023.01 1024.05 1024.64 1024.97 1025.25 1025.42 1026.22 1026.82 1027.41 1027.95 1028.31 1028.51 1028.53 1028.68 1028.80 1028.87 1028.73 1028.54 1028.13 1027.93 1027.68 1027.51 1027.32 1027.08 1026.92 1026.70 1026.37 1025.83 1025.31 1024.80 1024.23 1023.64 1022.98 1022.39 1021.47 1020.50 1019.67 1018.82 1017.79 1016.58 1015.40 1014.25 1013.08
1020.55 1020.88 1021.63 1021.90 1022.19 1022.71 1023.47 1024.47 1024.82 1025.43 1025.83 1026.35 1026.69 1027.11 1027.57 1027.89 1028.13 1028.49 1028.64 1028.63 1028.81 1028.82 1028.70 1028.52 1028.30 1028.20 1027.95 1027.74 1027.55 1027.38 1027.11 1026.88 1026.54 1026.09 1025.69 1025.14 1024.78 1024.19 1023.57 1022.75 1022.07 1021.24 1020.54 1019.31 1018.22 1017.18 1015.93 1014.78 1013.47
1020.96 1021.79 1022.10 1022.48 1022.66 1023.10 1023.42 1024.77 1024.71 1025.07 1025.94 1026.64 1026.98 1027.22 1027.67 1027.86 1028.12 1028.38 1028.55 1028.74 1028.72 1028.81 1028.71 1028.51 1028.29 1028.32 1028.10 1027.98 1027.85 1027.66 1027.44 1027.12 1026.81 1026.42 1025.96 1025.62 1025.21 1024.61 1023.94 1023.50 1022.68 1021.89 1020.91 1019.51 1018.46 1017.31 1016.35 1015.13 1013.85
1021.63 1022.17 1022.84 1022.66 1022.83 1023.36 1023.61 1023.69 1023.94 1024.91 1025.90 1026.57 1026.99 1027.30 1027.62 1027.78 1028.09 1028.29 1028.41 1028.59 1028.70 1028.79 1028.88 1028.73 1028.53 1028.51 1028.41 1028.18 1027.94 1027.79 1027.73 1027.59 1027.24 1026.73 1026.31 1025.90 1025.24 1024.80 1024.46 1023.92 1023.24 1022.38 1021.11 1019.99 1019.12 1018.05 1016.83 1015.50 1014.37
1022.49 1022.59 1022.83 1022.77 1022.68 1023.29 1024.00 1023.91 1023.91 1024.77 1025.56 1026.28 1026.70 1027.23 1027.40 1027.80 1028.02 1028.25 1028.32 1028.47 1028.65 1028.71 1028.88 1028.88 1028.77 1028.79 1028.53 1028.29 1028.10 1027.98 1027.96 1027.81 1027.44 1027.10 1026.62 1026.16 1025.67 1025.25 1024.82 1024.35 1023.66 1022.72 1021.55 1020.66 1019.77 1018.62 1017.41 1015.86 1014.64
1022.15 1022.55 1022.59 1022.66 1022.93 1023.37 1024.01 1023.51 1024.05 1024.72 1025.34 1025.51 1026.06 1026.69 1027.01 1027.06 1027.40 1027.70 1028.05 1028.42 1028.70 1028.79 1028.82 1028.94 1029.00 1028.81 1028.57 1028.36 1028.18 1028.28 1028.22 1027.91 1027.61 1027.35 1027.08 1026.72 1026.07 1025.59 1025.05 1024.55 1023.91 1023.09 1022.09 1021.25 1020.26 1019.23 1017.88 1016.51 1015.25
1021.26 1021.94 1022.38 1022.71 1022.92 1023.39 1023.48 1023.86 1023.79 1024.40 1024.92 1025.14 1025.46 1025.69 1026.03 1026.63 1026.73 1027.26 1027.86 1028.40 1028.75 1028.98 1029.07 1029.08 1029.10 1029.13 1028.95 1028.79 1028.90 1028.67 1028.58 1028.31 1028.13 1027.73 1027.63 1027.14 1026.34 1026.03 1025.53 1025.05 1024.28 1023.44 1022.79 1022.06 1021.08 1019.80 1018.45 1016.80 1015.56
1021.31 1021.94 1022.47 1022.76 1022.99 1023.62 1023.62 1023.08 1022.62 1023.12 1022.86 1023.00 1023.43 1024.19 1024.97 1025.93 1026.49 1027.09 1027.71 1028.30 1028.74 1028.94 1029.12 1029.30 1029.36 1029.41 1029.45 1029.35 1029.27 1029.15 1028.92 1028.52 1028.33 1028.17 1027.74 1027.16 1026.87 1026.62 1026.12 1025.72 1024.95 1024.22 1023.43 1022.49 1021.67 1020.48 1019.11 1017.98 1016.68
1021.74 1022.23 1022.82 1023.28 1023.56 1023.83 1023.95 1022.54 1021.67 1021.10 1021.52 1021.69 1022.06 1022.50 1023.56 1024.32 1025.44 1026.41 1027.30 1028.01 1028.55 1028.89 1029.09 1029.23 1029.49 1029.68 1029.78 1029.71 1029.44 1029.18 1029.00 1028.80 1028.58 1028.37 1028.08 1027.51 1027.24 1026.98 1026.51 1026.04 1025.39 1024.84 1024.08 1023.30 1022.37 1021.25 1020.27 1018.95 1017.73
1021.69 1021.98 1023.08 1023.84 1024.41 1025.08 1025.03 1023.78 1021.67 1020.78 1020.76 1020.78 1020.94 1021.63 1022.31 1023.35 1024.38 1025.36 1026.54 1027.50 1028.04 1028.61 1028.97 1029.28 1029.50 1029.85 1029.90 1029.92 1029.87 1029.81 1029.98 1029.77 1029.56 1029.20 1028.53 1027.73 1027.59 1027.33 1026.84 1026.42 1025.79 1025.23 1024.57 1023.74 1022.94 1021.93 1021.07 1020.03 1018.72
1021.97 1022.67 1023.51 1024.90 1025.58 1025.73 1025.68 1025.48 1021.06 1020.68 1020.06 1019.20 1019.25 1020.15 1021.18 1022.05 1023.06 1024.47 1025.66 1026.61 1027.63 1028.46 1028.98 1029.35 1029.71 1030.12 1030.34 1030.43 1030.38 1030.32 1030.25 1030.15 1029.85 1029.45 1028.88 1028.04 1027.68 1027.48 1027.14 1026.77 1026.21 1025.46 1024.97 1024.17 1023.37 1022.38 1021.50 1020.69 1019.73
1022.63 1023.45 1024.68 1025.85 1026.88 1027.17 1025.89 1025.21 1020.57 1019.59 1018.21 1018.06 1018.10 1019.01 1020.09 1021.31 1022.58 1023.86 1025.23 1026.29 1027.33 1028.07 1028.72 1029.20 1029.56 1030.11 1030.54 1030.64 1030.63 1030.56 1030.53 1030.35 1030.01 1029.84 1029.27 1028.52 1028.28 1027.91 1027.61 1027.11 1026.64 1025.94 1025.34 1024.57 1023.67 1022.94 1022.09 1021.20 1020.25
1022.80 1024.06 1026.44 1027.70 1028.58 1027.87 1026.56 1025.45 1019.97 1017.65 1017.25 1017.46 1017.70 1018.44 1019.56 1020.74 1022.07 1023.35 1024.70 1025.82 1026.95 1027.68 1028.37 1028.95 1029.43 1030.09 1030.32 1030.65 1030.76 1030.82 1030.80 1030.80 1030.58 1030.37 1029.92 1029.39 1029.14 1028.45 1028.02 1027.58 1027.05 1026.28 1025.70 1024.91 1024.16 1023.20 1022.36 1021.51 1020.71
1023.30 1023.75 1025.48 1027.44 1029.29 1028.26 1026.93 1023.98 1018.20 1016.28 1016.15 1016.59 1017.25 1018.02 1019.36 1020.78 1021.78 1022.73 1023.91 1025.27 1026.35 1027.30 1028.03 1028.53 1029.14 1029.82 1030.28 1030.55 1030.88 1031.02 1031.08 1031.06 1030.85 1030.78 1030.38 1030.08 1029.73 1029.07 1028.60 1028.10 1027.40 1026.66 1026.04 1025.28 1024.44 1023.44 1022.73 1021.99 1021.17
1023.98 1024.37 1024.73 1027.03 1029.55 1028.59 1025.05 1021.32 1017.41 1015.40 1016.05 1016.53 1017.30 1018.35 1019.39 1020.44 1021.42 1022.50 1023.83 1024.96 1026.09 1027.13 1027.85 1028.35 1028.92 1029.60 1030.08 1030.51 1030.88 1031.15 1031.24 1031.26 1031.39 1031.42 1030.95 1030.43 1030.07 1029.11 1028.78 1028.48 1027.69 1026.83 1026.23 1025.48 1024.60 1023.79 1023.09 1022.31 1021.64
1023.55 1023.94 1025.05 1026.46 1027.97 1027.65 1024.51 1021.86 1017.77 1015.48 1015.51 1016.10 1017.23 1018.15 1019.13 1020.21 1021.22 1022.18 1023.37 1024.56 1025.67 1026.69 1027.60 1028.34 1028.94 1029.48 1030.03 1030.57 1030.73 1031.15 1031.55 1031.72 1031.81 1031.48 1030.96 1030.66 1030.24 1029.61 1029.16 1028.41 1027.87 1027.03 1026.37 1025.70 1024.81 1024.10 1023.55 1022.74 1022.00
1023.78 1024.07 1024.67 1025.19 1025.49 1025.30 1024.34 1019.41 1015.59 1014.56 1014.64 1015.40 1016.13 1017.22 1018.29 1019.47 1020.60 1021.74 1022.91 1024.15 1025.22 1026.33 1027.28 1028.27 1029.09 1029.71 1030.42 1030.76 1030.88 1031.17 1031.59 1031.78 1031.90 1031.63 1031.55 1031.21 1030.61 1029.97 1029.47 1028.98 1028.10 1027.37 1026.68 1025.99 1025.14 1024.49 1023.83 1023.13 1022.45
1022.75 1023.29 1024.02 1025.04 1025.45 1024.65 1022.81 1017.57 1014.45 1014.35 1014.38 1014.87 1015.57 1016.71 1017.70 1018.84 1020.08 1021.28 1022.55 1023.82 1025.19 1026.20 1027.12 1028.02 1028.71 1029.53 1030.59 1030.99 1031.30 1031.43 1031.71 1032.02 1032.08 1031.94 1032.15 1031.63 1031.11 1030.31 1029.62 1029.24 1028.63 1027.85 1027.04 1026.35 1025.46 1024.76 1024.20 1023.51 1022.91
Wind_Speed
7 6 3 8 9 8 3 3 3 1 5 6 4 10 9 4 3 5 3 8 8 9 11 13 20 20 22 22 24 24 25 26 26 26 26 26 26 26 26 27 27 27 26 27 27 26 25 25 22
4 4 6 4 8 5 3 2 6 5 7 8 5 3 7 4 2 4 5 8 8 9 10 12 20 22 21 23 24 24 25 25 25 26 26 26 26 26 26 25 25 26 27 26 27 27 26 26 26
2 5 6 6 5 4 5 4 6 5 7 0 4 6 4 2 2 4 4 6 8 9 10 12 19 21 22 23 24 24 25 25 27 27 26 26 26 26 27 28 28 28 27 26 26 27 27 26 26
4 7 6 7 3 2 6 5 6 8 3 6 4 7 3 3 2 4 3 7 7 9 9 13 19 20 22 23 24 25 26 27 28 28 28 27 27 27 27 27 27 28 29 28 28 26 26 27 27
6 5 6 5 2 2 4 6 6 6 4 2 1 4 4 4 7 6 8 8 8 8 9 9 18 20 21 23 24 25 26 27 28 29 28 27 27 27 27 27 28 28 28 29 30 29 27 27 27
6 5 6 3 0 3 4 4 6 4 4 4 6 5 3 4 6 5 7 7 6 7 7 7 13 20 22 23 22 24 24 25 26 28 28 28 28 28 28 28 29 30 30 29 29 30 29 27 27
8 6 5 6 5 3 4 3 4 5 6 3 7 5 4 4 5 6 6 6 6 6 6 7 9 12 16 21 22 24 24 25 26 26 26 26 26 26 27 26 28 30 30 30 30 30 29 29 28
7 7 6 3 6 4 4 3 3 4 2 2 4 6 6 5 6 6 6 6 6 6 7 7 7 8 6 6 20 21 23 24 25 26 26 25 24 26 26 25 27 29 29 31 30 30 30 30 28
3 7 4 9 9 6 5 5 2 0 6 3 2 4 5 9 6 6 6 6 5 7 7 7 8 7 6 6 10 13 19 20 22 20 24 16 10 12 16 21 26 29 28 29 29 30 30 30 24
6 5 10 7 8 8 7 4 8 5 3 3 4 5 6 5 6 8 6 6 6 7 7 7 7 6 6 7 7 7 9 8 8 10 12 10 11 11 15 17 23 25 27 27 30 30 29 22 13
3 3 3 2 4 8 8 4 3 11 4 8 11 10 6 5 6 7 4 4 4 3 4 6 6 6 7 7 6 4 4 5 6 10 10 10 9 9 9 8 8 10 19 12 16 17 13 16 14
7 5 2 3 5 7 7 7 5 2 4 7 10 8 6 8 7 6 6 5 4 4 4 6 7 7 7 4 4 4 4 4 5 7 10 8 6 9 10 8 11 10 11 14 14 11 18 17 17
5 3 6 6 10 8 7 4 5 3 2 8 10 8 9 7 7 4 5 5 4 5 4 5 7 6 6 6 4 5 5 4 5 6 9 8 8 9 9 9 9 10 11 11 13 13 13 16 15
3 7 5 6 6 5 7 2 1 4 4 7 8 9 8 9 8 5 5 5 5 4 4 4 7 6 5 5 6 4 4 5 5 5 7 9 7 8 9 9 10 10 11 12 13 13 14 13 14
2 7 6 5 2 3 8 3 8 7 8 9 9 8 7 8 7 8 6 6 6 3 3 5 5 6 6 5 5 4 4 5 5 6 7 10 10 10 10 9 9 10 10 14 12 14 15 12 13
6 6 4 3 3 4 3 8 6 10 11 11 10 8 7 7 7 6 7 6 6 5 4 4 5 6 6 6 4 3 4 4 5 6 6 9 10 12 10 8 9 11 10 10 12 13 13 12 12
6 4 4 2 7 5 5 6 1 8 10 10 9 8 8 7 6 6 7 7 7 6 5 4 5 6 5 6 4 4 5 4 4 4 7 10 10 12 9 8 9 12 10 10 11 12 12 12 15
8 4 4 5 6 4 5 12 2 8 9 13 10 9 9 9 10 9 8 7 7 5 5 5 4 5 5 4 4 3 3 4 5 6 7 9 9 13 11 9 10 10 10 10 12 15 13 13 13
7 4 3 2 1 4 8 7 8 11 10 13 11 13 13 10 8 8 7 7 7 4 5 4 5 5 4 3 3 2 3 4 4 5 7 9 11 12 11 9 10 11 10 12 14 13 16 12 13
4 3 3 2 1 4 3 13 12 13 16 20 20 16 14 8 9 8 8 7 7 7 6 5 5 5 4 3 2 1 2 2 2 3 6 9 11 11 10 10 10 11 10 13 14 15 12 9 12
1 3 3 0 2 3 7 11 5 6 9 12 16 12 14 16 14 11 10 8 7 7 7 6 5 5 5 5 2 3 2 3 4 6 5 7 9 10 10 11 10 11 9 9 12 14 15 11 12
2 4 4 6 4 3 4 9 7 3 8 12 15 13 16 14 13 13 12 9 9 7 7 6 6 5 5 5 4 5 2 3 3 3 5 5 8 9 9 11 10 10 9 11 11 12 12 11 11
3 5 7 3 4 3 1 2 8 0 8 13 16 16 16 17 18 16 15 13 7 8 7 6 6 6 5 5 5 3 3 2 3 3 7 9 8 8 9 11 11 11 9 11 12 14 14 10 8
9 7 7 5 3 4 3 5 7 6 8 4 4 13 16 16 15 14 11 10 9 7 7 7 7 5 5 4 4 5 6 5 5 6 6 7 7 7 10 12 10 10 10 12 11 13 14 12 10
3 7 4 6 5 7 3 2 13 9 8 7 7 9 13 15 16 16 16 14 12 11 9 7 7 6 4 4 4 5 5 5 5 6 6 8 7 8 10 12 12 10 12 11 11 12 13 11 11
5 6 9 9 4 4 2 9 11 7 5 7 7 6 9 12 15 17 17 14 13 12 10 8 8 7 5 4 4 5 6 3 4 5 5 5 6 7 10 10 10 10 11 11 10 10 9 11 11
6 4 4 10 2 5 6 11 12 7 9 8 7 7 10 13 15 17 15 13 12 11 10 10 9 6 6 5 4 5 4 5 5 5 6 5 6 8 9 10 10 10 11 11 11 8 10 12 12
2 5 5 4 4 5 6 7 11 5 6 6 8 10 9 11 13 14 14 13 11 10 9 8 8 7 6 5 4 4 4 5 4 5 7 8 7 8 10 10 10 10 10 11 10 9 10 12 11
2 2 4 3 5 8 2 9 10 12 10 10 11 10 13 15 16 15 14 12 11 10 10 9 8 8 5 5 5 5 4 5 5 6 6 7 9 9 10 11 10 10 10 11 10 10 12 13 14
4 7 8 7 7 2 4 12 3 9 7 8 8 9 8 13 14 14 14 14 13 12 11 10 8 8 6 5 5 6 5 5 5 7 8 8 8 9 9 10 10 9 10 10 11 12 12 12 13
Wind_Direction
343 345 31 41 56 63 89 159 139 115 52 346 43 91 110 79 63 155 170 11 350 358 350 332 4 9 16 19 21 18 16 16 12 8 6 4 2 1 359 358 350 350 349 349 344 343 341 336 334
350 20 46 80 80 73 266 223 168 157 143 167 78 60 55 85 58 105 34 335 10 360 350 329 12 17 17 14 21 19 18 14 11 11 7 3 5 360 358 356 352 347 346 348 346 343 339 340 335
108 42 72 81 101 140 170 174 148 104 131 126 97 54 72 7 31 88 358 10 16 6 0 344 16 20 19 25 24 23 21 19 17 13 11 6 4 1 358 355 354 348 345 343 345 343 341 340 335
57 17 38 72 108 172 157 151 143 124 124 71 116 68 55 5 55 52 38 33 26 5 5 359 23 25 25 29 28 27 23 20 19 16 14 10 6 2 359 356 352 348 346 343 341 341 340 338 337
41 57 59 77 13 73 71 134 145 130 106 44 122 135 87 71 89 74 53 39 26 360 3 6 26 30 31 31 30 25 23 19 17 16 13 10 9 6 2 357 353 348 346 344 342 339 339 337 335
53 89 69 133 160 57 25 128 121 115 115 155 79 99 130 99 84 64 63 46 22 14 358 2 20 30 29 30 26 25 22 19 16 14 13 10 8 5 3 360 353 349 346 344 340 337 335 336 335
105 79 138 134 149 94 161 85 79 118 127 83 145 100 150 116 120 98 69 49 28 15 14 8 14 14 24 27 26 23 20 18 17 14 11 9 6 3 1 359 353 351 348 342 340 338 334 333 337
103 91 112 170 183 193 158 74 72 65 78 120 136 172 184 170 144 104 68 46 36 27 26 15 11 3 1 14 27 25 20 17 15 13 9 5 1 358 354 354 353 352 349 346 339 337 336 334 337
120 76 161 188 162 183 171 120 34 105 104 60 358 129 131 124 126 75 37 22 19 28 23 14 10 1 352 32 21 19 17 15 15 10 6 359 351 344 351 347 353 354 350 346 341 338 336 336 331
71 109 197 177 163 156 152 118 149 109 105 46 61 54 95 99 97 87 66 41 26 17 6 11 2 0 5 18 12 9 11 5 7 4 360 357 349 349 348 344 350 350 348 347 344 337 334 335 322
28 119 147 13 164 124 129 109 120 126 231 201 180 160 147 116 96 100 85 77 62 17 17 360 356 6 21 18 20 12 4 358 357 2 1 354 353 348 348 344 344 344 344 343 343 338 332 328 322
93 46 90 94 114 99 126 123 99 233 242 162 152 144 135 140 136 131 121 98 82 56 26 9 8 20 17 14 12 356 6 1 357 360 359 358 350 351 352 348 341 346 345 337 338 338 331 329 321
80 123 51 79 87 77 99 74 161 215 40 109 128 142 152 147 139 147 135 116 107 64 29 20 24 22 10 18 359 8 1 356 345 358 360 356 357 352 350 345 341 341 338 335 333 331 330 328 324
82 78 90 39 78 83 108 150 7 231 148 126 148 169 167 159 170 153 148 133 104 90 47 29 36 23 14 13 9 1 353 355 355 1 356 1 355 353 354 348 343 339 335 333 335 334 331 329 324
71 73 52 25 38 115 137 241 228 173 159 167 187 185 175 187 174 174 165 139 145 119 80 39 41 24 26 10 12 5 358 2 1 356 359 359 2 358 356 345 342 337 329 336 338 336 340 332 329
66 58 116 247 168 189 99 259 206 164 160 193 199 201 189 197 188 176 169 148 146 127 94 68 42 23 18 14 8 4 6 2 3 353 358 359 1 2 353 343 340 334 336 340 342 340 336 332 336
13 182 187 251 206 151 178 264 229 162 174 200 207 204 203 198 194 191 182 167 160 144 125 79 47 28 9 3 12 18 17 11 347 348 8 359 2 360 353 344 336 338 343 346 343 339 334 328 339
189 201 222 209 217 173 193 252 191 193 191 211 204 211 209 199 202 191 180 167 150 143 128 105 64 28 8 1 3 18 15 3 9 10 9 357 4 360 354 347 341 345 347 343 340 336 338 337 336
130 120 190 248 197 166 230 283 246 206 215 224 216 212 215 203 202 183 176 159 152 144 120 100 75 20 24 4 352 347 345 6 11 360 354 1 9 3 355 350 345 348 348 336 342 343 338 342 344
109 125 221 305 195 182 345 268 246 198 221 213 213 212 209 185 183 182 171 168 174 158 142 118 93 54 29 22 350 320 306 313 329 338 354 9 8 357 356 349 346 347 341 341 347 350 344 337 347
88 172 179 161 28 283 343 287 245 246 232 218 221 212 206 194 185 181 175 177 165 163 160 138 115 82 47 29 349 355 348 336 352 357 346 360 1 355 357 352 350 344 344 340 338 349 350 340 341
174 156 127 123 102 248 28 284 300 272 255 227 222 203 197 188 190 177 170 171 175 172 150 129 120 99 68 34 40 45 28 1 333 315 317 354 360 351 353 352 350 347 340 341 339 343 346 349 338
170 115 112 96 88 48 358 354 265 294 264 245 221 210 199 191 182 174 177 173 167 152 152 135 117 91 73 54 55 49 29 360 301 329 338 2 350 349 349 354 347 348 344 338 338 342 349 348 339
153 83 56 70 64 2 257 180 260 210 215 266 224 205 197 187 180 170 163 146 152 152 142 139 123 106 89 71 53 56 41 357 1 354 352 353 343 343 347 350 346 344 340 340 338 337 344 343 341
94 93 360 356 18 223 349 228 253 265 243 221 237 202 194 181 170 163 162 165 161 161 156 145 133 123 119 97 64 43 36 11 13 349 353 357 344 344 341 347 341 343 336 334 335 340 344 344 341
187 151 159 195 185 256 101 240 250 227 249 242 240 207 167 174 177 174 171 167 167 162 158 144 142 137 132 115 72 49 32 8 10 350 1 3 338 337 336 335 333 335 331 330 337 344 339 346 346
193 197 159 104 71 61 231 276 295 272 255 247 221 175 176 180 178 173 167 167 163 162 160 154 143 140 132 113 90 59 37 29 360 358 15 349 336 340 345 331 332 336 335 332 332 341 347 350 352
211 171 96 343 147 252 277 276 243 271 257 229 215 212 189 179 178 172 169 165 162 155 149 144 143 141 130 105 88 80 50 31 2 10 9 354 341 344 338 337 338 340 337 332 339 347 353 354 355
142 257 18 113 158 170 211 259 221 225 205 212 224 199 188 185 184 175 168 164 155 144 146 145 139 134 121 108 103 87 60 36 19 26 5 352 343 351 343 338 339 341 337 334 345 352 358 358 355
176 202 177 136 234 226 150 265 274 229 224 213 243 210 185 184 181 172 164 155 153 155 151 151 146 130 122 119 106 91 69 43 28 29 5 356 351 354 343 343 342 343 336 334 344 2 358 358 357